sat.trackr.live / text

‹ back to catalog

STARLINK-3121

NORAD 49428 · 2021-104W

PAYLOAD ACTIVE UNKNOWN

§ Identity

Operator
Country
US
Launch date
2021-11-13
Launch site
AFETR
Launch vehicle
Mass (kg)
RCS (m²)

Purposes: comms

External: N2YO · Heavens-Above · Gunter

§ Orbital elements

Epoch: 2026-09-20T03:25:30.529344Z

Period
94.97 min
Inclination
53.1585°
Eccentricity
0.0001436
Mean motion
15.16195198 rev/d
Perigee alt
516.4 km
Apogee alt
518.3 km
Semi-major
6,895.5 km
B*
6.1978e-4
RAAN
72.0626°
Arg perigee
130.5026°
Mean anomaly
229.6094°
Rev number
26,804

§ Raw data

STARLINK-31211 49428U 21104W   26263.14271446  .00011823  00000+0  61978-3 0  99912 49428  53.1585  72.0626 0001436 130.5026 229.6094 15.16195198268048

JSON: /api/v1/satellites/49428 · /tle

For live sub-satellite position, see the globe view (requires WebGL).

§ Visibility from observer

Set your observer location to see the next 7 days of passes ≥ 10°. The values pass through the URL so the page stays shareable.

No JS? Fill the form by hand. The geolocation button needs JavaScript.